OE5RBO Weather Reports


Display with metric or nautical units.
time (UTC)temp
F
wind
direction
speed
MPH
gust
MPH
rain 1hr
in
rain 24hr
in
rain mn
in
humidity
%
barometer
mb
20260507020009 51 139 1.0 3.0 0.00 0.00 0.00 97 1010.7
20260507015008 51 155 3.0 8.0 0.00 0.00 0.00 96 1010.7
20260507014007 50 121 2.0 4.0 0.00 0.00 0.00 97 1010.6
20260507013007 51 134 3.0 5.0 0.00 0.00 0.00 97 1010.6
20260507011006 50 138 4.0 7.0 0.00 0.00 0.00 97 1010.4
20260507010006 50 87 3.0 6.0 0.00 0.00 0.00 98 1010.4
20260507004005 49 132 2.0 4.0 0.00 0.00 0.00 99 1010.3
20260507003005 49 65 1.0 3.0 0.00 0.00 0.00 99 1010.3
20260507002004 49 131 2.0 3.0 0.00 0.00 0.00 99 1010.3
20260507001004 50 65 2.0 3.0 0.00 0.00 0.00 98 1010.3
20260506235003 50 153 1.0 5.0 0.00 0.00 0.00 98 1010.4
20260506234003 50 153 3.0 7.0 0.00 0.00 0.00 97 1010.3
20260506233003 50 39 4.0 8.0 0.00 0.00 0.00 97 1010.2
20260506232002 50 139 3.0 8.0 0.00 0.00 0.38 98 1010.1
20260506230002 50 86 3.0 4.0 0.00 0.00 0.38 99 1010.1
20260506225001 51 145 3.0 7.0 0.00 0.00 0.38 98 1010.1
20260506224000 51 160 4.0 6.0 0.00 0.00 0.38 98 1010.1
20260506223000 51 150 3.0 6.0 0.00 0.00 0.38 98 1010.1
20260506222000 51 97 3.0 5.0 0.00 0.00 0.38 98 1010.0
20260506221000 51 186 2.0 5.0 0.00 0.00 0.38 98 1009.9
20260506214959 51 152 2.0 5.0 0.00 0.00 0.38 98 1009.8
20260506213959 51 146 3.0 6.0 0.00 0.00 0.38 98 1009.9
20260506212958 51 128 3.0 6.0 0.00 0.00 0.38 99 1009.8
20260506211958 51 152 2.0 5.0 0.00 0.00 0.38 99 1009.7
20260506210957 51 155 1.0 3.0 0.00 0.00 0.38 99 1009.7
20260506204957 52 141 1.0 2.0 0.00 0.00 0.38 99 1009.5
20260506202956 52 183 3.0 6.0 0.00 0.00 0.38 99 1009.5
20260506201956 53 207 4.0 8.0 0.00 0.00 0.38 99 1009.5
20260506195955 54 231 3.0 9.0 0.00 0.00 0.38 98 1009.4
20260506193954 54 203 3.0 9.0 0.00 0.00 0.38 99 1008.9
20260506193042 54 226 3.0 7.0 0.00 0.00 0.38 99 1008.8
20260506190953 54 193 3.0 7.0 0.00 0.00 0.36 100 1008.1
20260506185953 54 169 3.0 6.0 0.00 0.00 0.35 100 1007.9
20260506183952 55 188 3.0 7.0 0.00 0.00 0.34 99 1007.0
20260506183047 55 132 2.0 8.0 0.00 0.00 0.34 99 1006.4
20260506182951 55 132 2.0 8.0 0.00 0.00 0.34 99 1006.4
20260506182105 55 221 3.0 7.0 0.00 0.00 0.34 99 1006.0
20260506180951 55 225 2.0 5.0 0.00 0.00 0.34 100 1005.9
20260506175950 55 135 2.0 6.0 0.00 0.00 0.34 100 1005.8
20260506174950 55 215 2.0 7.0 0.00 0.00 0.34 100 1005.5
20260506173950 55 219 0.0 3.0 0.00 0.00 0.34 99 1005.1
20260506172950 54 10 1.0 5.0 0.00 0.00 0.34 100 1004.7
20260506171949 54 354 5.0 11.0 0.00 0.00 0.34 100 1004.3
20260506165948 54 330 5.0 12.0 0.00 0.00 0.32 99 1004.4
20260506161947 71 359 3.0 6.0 0.00 0.00 0.00 63 1000.9
20260506160946 71 353 5.0 9.0 0.00 0.00 0.00 65 1001.5
20260506155946 71 18 6.0 10.0 0.00 0.00 0.00 61 1001.5
20260506154946 73 10 4.0 8.0 0.00 0.00 0.00 60 1001.4
20260506153945 73 8 3.0 10.0 0.00 0.00 0.00 59 1001.6
20260506152945 73 24 7.0 17.0 0.00 0.00 0.00 59 1001.7
20260506151944 73 10 5.0 11.0 0.00 0.00 0.00 60 1001.8
20260506145944 73 21 8.0 13.0 0.00 0.00 0.00 59 1002.0
20260506143943 74 23 5.0 16.0 0.00 0.00 0.00 59 1002.4
20260506142943 74 25 6.0 11.0 0.00 0.00 0.00 59 1002.5
20260506140942 74 38 8.0 15.0 0.00 0.00 0.00 57 1002.6
20260506135942 74 58 4.0 11.0 0.00 0.00 0.00 58 1002.8
20260506134942 73 10 6.0 13.0 0.00 0.00 0.00 60 1002.9
20260506133941 72 311 7.0 13.0 0.00 0.00 0.00 63 1002.9
20260506132940 73 8 6.0 11.0 0.00 0.00 0.00 61 1003.2
20260506131940 72 17 7.0 14.0 0.00 0.00 0.00 62 1003.3
20260506130940 70 314 6.0 14.0 0.00 0.00 0.00 67 1003.4
20260506125939 70 329 7.0 16.0 0.00 0.00 0.00 67 1003.6
20260506123939 72 4 6.0 11.0 0.00 0.00 0.00 64 1003.7
20260506122938 73 288 5.0 10.0 0.00 0.00 0.00 63 1003.8
20260506121938 74 288 5.0 16.0 0.00 0.00 0.00 60 1003.8
20260506120937 74 23 4.0 7.0 0.00 0.00 0.00 53 1003.9
20260506115937 75 21 3.0 8.0 0.00 0.00 0.00 56 1004.1
20260506113937 75 359 2.0 8.0 0.00 0.00 0.00 53 1004.4
20260506112936 74 23 3.0 10.0 0.00 0.00 0.00 54 1004.6
20260506111936 73 20 2.0 5.0 0.00 0.00 0.00 53 1004.8
20260506110936 73 0 2.0 5.0 0.00 0.00 0.00 55 1004.9
20260506104935 71 4 3.0 7.0 0.00 0.00 0.00 57 1005.4
20260506103934 71 187 3.0 10.0 0.00 0.00 0.00 56 1005.6
20260506102934 71 25 5.0 12.0 0.00 0.00 0.00 56 1005.6
20260506101934 70 32 4.0 9.0 0.00 0.00 0.00 59 1005.6
20260506100933 70 31 5.0 8.0 0.00 0.00 0.00 63 1005.7
20260506095933 69 20 3.0 9.0 0.00 0.00 0.00 65 1005.8
20260506094932 68 214 5.0 10.0 0.00 0.00 0.00 64 1006.0
20260506093932 68 288 5.0 9.0 0.00 0.00 0.00 69 1006.0
20260506092932 66 15 5.0 10.0 0.00 0.00 0.00 72 1006.0
20260506091931 67 288 5.0 9.0 0.00 0.00 0.00 69 1006.1
20260506090931 68 288 4.0 9.0 0.00 0.00 0.00 67 1006.0
20260506085931 68 11 5.0 10.0 0.00 0.00 0.00 70 1006.0
20260506083930 67 333 6.0 10.0 0.00 0.00 0.00 66 1006.2
20260506081929 69 27 4.0 7.0 0.00 0.00 0.00 63 1006.2
20260506080929 69 353 3.0 8.0 0.00 0.00 0.00 62 1006.3
20260506072928 74 203 0.0 3.0 0.00 0.00 0.00 58 1006.6
20260506071927 72 0 0.0 0.0 0.00 0.00 0.00 65 1006.7
20260506070927 70 188 0.0 1.0 0.00 0.00 0.00 71 1006.9
20260506061925 61 0 0.0 0.0 0.00 0.00 0.00 86 1007.3
20260506050922 54 0 0.0 0.0 0.00 0.00 0.00 96 1007.6
20260506044921 52 13 2.0 3.0 0.00 0.00 0.00 97 1007.6
20260506043921 52 195 1.0 5.0 0.00 0.00 0.00 97 1007.6
20260506042921 53 0 0.0 0.0 0.00 0.00 0.00 95 1007.4
20260506041920 54 0 0.0 0.0 0.00 0.00 0.00 92 1007.4
20260506040920 55 35 0.0 2.0 0.00 0.00 0.00 91 1007.6
20260506035920 56 53 1.0 2.0 0.00 0.00 0.00 88 1007.8
20260506034920 57 0 0.0 0.0 0.00 0.00 0.00 86 1008.0
20260506032919 57 132 3.0 5.0 0.00 0.00 0.00 84 1008.0
20260506031918 56 122 2.0 5.0 0.00 0.00 0.00 88 1008.3
20260506030918 56 110 2.0 6.0 0.00 0.00 0.00 92 1008.5
20260506024917 57 162 2.0 5.0 0.00 0.00 0.00 90 1008.0
20260506023917 57 149 2.0 5.0 0.00 0.00 0.00 88 1008.0
20260506022917 57 138 2.0 6.0 0.00 0.00 0.00 89 1008.0